Location: Banksville Park
(38.5557°N, 75.1182°W)
Time: 23:28:52
(UTC+00:00)

Cosmos 2082 Rocket - Pass Details

Date: 19 September 2020
Orbit: 834 x 853 km, 71.0° (Epoch: 30 October)

Event Time Altitude Azimuth Distance (km) Brightness Sun altitude
Rises 01:47:40 0° 352° (N) 3,389 5.8 -31.5°
Reaches altitude 10° 01:51:07 10° 13° (NNE) 2,452 4.8 -32.0°
Enters shadow 01:52:07 13° 23° (NNE) 2,255 4.5 -32.2°
